Regional Weather Roundup
Issued by NWS

Home | Current Version | Previous Version | Text Only | Print | Product List | Glossary On
Versions: 1 2 3 4 5 6 7 8 9 10 11 12 13 14 15 16 17 18 19 20 21 22 23 24 25 26 27 28 29 30 31 32 33 34 35 36 37 38 39 40 41 42 43 44 45 46 47 48 49 50
001
ASUS43 KMPX 230001
RWRMN
WEATHER ROUNDUP FOR MINNESOTA
NATIONAL WEATHER SERVICE TWIN CITIES/CHANHASSEN MN
600 PM CST WED FEB 22 2017


NOTE: "FAIR" INDICATES FEW OR NO CLOUDS BELOW 12,000 FEET WITH NO
SIGNIFICANT WEATHER AND/OR OBSTRUCTIONS TO VISIBILITY. N/A MEANS
CURRENT SKY AND/OR WEATHER CONDITIONS ARE NOT AVAILABLE.

MNZ060>063-068>070-230100-
   Twin Cities Metro

CITY           SKY/WX    TMP DP  RH WIND       PRES   REMARKS
TWIN CITIES    MOCLDY    50  43  77 NW9       29.59R
6HR MIN TEMP:  50; 6HR MAX TEMP:  59;

ST PAUL        CLOUDY    51  46  83 W10       29.59R
CRYSTAL        MOCLDY    47  42  83 W6        29.58R
BLAINE         MOCLDY    50  46  87 W3        29.59R
LAKEVILLE      PTCLDY    48  45  87 W12       29.58R
EDEN PRAIRIE   MOCLDY    48  42  80 NW7       29.59R
6HR MIN TEMP:  48; 6HR MAX TEMP:  59;

SOUTH ST PAUL  MOCLDY    53  45  74 W6        29.58R
LAKE ELMO      MOCLDY    50  45  81 W7        29.59R
$$
MNZ001>005-007-008-013>017-022>024-027-028-230100-
   Northwest Minnesota

CITY           SKY/WX    TMP DP  RH WIND       PRES   REMARKS
BEMIDJI        LGT SNOW  30  28  93 N10       29.77R WCI  21
HALLOCK        PTCLDY    34  28  80 N13       29.87R WCI  25
ROSEAU         MOCLDY    32  25  74 N12       29.82R WCI  23
WARROAD        PTCLDY    32  25  74 NW12      29.82R WCI  23
THIEF RVR FALL CLOUDY    32  24  72 N14       29.84R WCI  22
CROOKSTON      CLOUDY    34  27  75 N12G18    29.86R WCI  25
FOSSTON        CLOUDY    30  27  86 N14       29.82R WCI  20
DETROIT LAKES  CLOUDY    32  32 100 N15G24    29.78R WCI  22
MOORHEAD       LGT RAIN  34  28  80 N22G28    29.83R WCI  22
PARK RAPIDS    LGT SNOW  34  29  82 N16G22    29.73R WCI  24
MAHNOMEN       CLOUDY    32  28  88 N16       29.80R WCI  21
$$
MNZ006-009>011-018-025>026-230100-
   North Central Minnesota

CITY           SKY/WX    TMP DP  RH WIND       PRES   REMARKS
BAUDETTE       CLOUDY    30  22  72 NW10      29.78R WCI  21
FLAG ISLAND    PTCLDY    30  21  69 NW10      29.80R WCI  21
INTL FALLS     CLOUDY    32  25  75 N8        29.75R WCI  25
6HR MIN TEMP:  32; 6HR MAX TEMP:  34; 6HR PCP:  0.05;

WASKISH        CLOUDY    32  27  80 N6        29.79R WCI  26
BIG FORK       LGT SNOW  34  30  86 N5        29.74R WCI  30
LONGVILLE      LGT SNOW  32  32 100 NW6       29.71R WCI  26
GRAND RAPIDS   LGT SNOW  32  31  96 N10       29.71S FOG     WCI  24
CRANE LAKE     CLOUDY    34  28  80 N6        29.73R WCI  29
ORR            FLURRIES  32  28  86 CALM      29.70R
COOK           LGT SNOW  34  30  86 NW5       29.71R WCI  30
WALKER         LGT SNOW  32  30  94 N10G18    29.74R WCI  23
$$
MNZ012-019>021-037-230100-
   Northeast Minnesota

CITY           SKY/WX    TMP DP  RH WIND       PRES   REMARKS
DULUTH         LGT RAIN  37  36  96 SW5       29.64R
6HR MIN TEMP:  37; 6HR MAX TEMP:  46; 6HR PCP:  0.08;

ELY            MIX PCPN  36  30  80 N3        29.67R
HIBBING        LGT SNOW  32  32 100 NW9       29.69R FOG     WCI  24
EVELETH        LGT SNOW  34  32  94 N5        29.68R WCI  30
DULUTH HARBOR  LGT RAIN  36  34  93 CALM      29.67R
TWO HARBORS    RAIN      37  34  87 CALM      29.64R
SILVER BAY     LGT RAIN  37  34  87 CALM      29.63R
GRAND MARAIS     N/A     38  32  79 CALM      29.65R
G MARAIS ARPRT FLURRIES  36  27  69 N12       29.63R
$$
MNZ029>031-032-039>041-046>048-054>057-064-230100-
   West Central Minnesota

CITY           SKY/WX    TMP DP  RH WIND       PRES   REMARKS
FERGUS FALLS   CLOUDY    34  34 100 N13G21    29.81R WCI  25
WHEATON        LGT SNOW  34  30  86 NW16      29.81R WCI  23
MORRIS         LGT SNOW  34  34 100 N17       29.74R WCI  23
ALEXANDRIA     LGT SNOW  35  33  92 N14       29.72R FOG     WCI  26
ELBOW LAKE     DRIZZLE   33  33  99 N13G20    29.76R WCI  24
WADENA         LGT SNOW  32  30  93 N12       29.73R WCI  23
GLENWOOD       DRIZZLE   37  36  93 N14       29.71R
APPLETON       CLOUDY    37  36  93 NW13G22   29.74R
BENSON         DRIZZLE   41  36  81 N14       29.73R
ORTONVILLE     CLOUDY    34  30  86 N17G26    29.77R WCI  23
MADISON        CLOUDY    39  37  93 NW22G29   29.75R
WILLMAR        CLOUDY    43  39  87 NW20G25   29.70R
$$
MNZ033>034-036-042>043-049>051-058-059-230100-
   Central Minnesota

CITY           SKY/WX    TMP DP  RH WIND       PRES   REMARKS
ST CLOUD       CLOUDY    43  38  82 N15G22    29.63R
6HR MIN TEMP:  43; 6HR MAX TEMP:  55;

SAUK CENTRE    CLOUDY    37  35  93 N18       29.69R
PAYNESVILLE    CLOUDY    42  38  84 NW13      29.67R
AITKIN         LGT SNOW  36  30  80 NW9       29.67R
PINE RIVER     LGT SNOW  34  34 100 N12       29.75R WCI  25
BRAINERD       LGT SNOW  32  32 100 N12       29.70R FOG     WCI  23
STAPLES        LGT SNOW  32  32 100 N12       29.72R WCI  23
LONG PRAIRIE   LGT SNOW  32  32 100 NW12      29.70R WCI  23
LITTLE FALLS   MIX PCPN  36  32  87 N10G16    29.69R
LITCHFIELD     MOCLDY    46  43  87 NW14G20   29.65R
BUFFALO        CLOUDY    49  41  74 NW14G20   29.62R
MAPLE LAKE     MOCLDY    48  41  77 N9        29.62R
HUTCHINSON     PTCLDY    48  44  86 W12       29.65R
$$
MNZ037-044-045-052-053-230100-
   East Central Minnesota

CITY           SKY/WX    TMP DP  RH WIND       PRES   REMARKS
PRINCETON      MOCLDY    46  39  76 NW9       29.62R
MORA           MOCLDY    43  36  75 NW14      29.63R
CAMBRIDGE      CLOUDY    50  37  62 NW9       29.59R
RUSH CITY      CLOUDY    46  37  71 N9        29.59R
MOOSE LAKE     CLOUDY    37  34  87 N6        29.63R
HINCKLEY       CLOUDY    43  36  75 N10       29.60R
CLOQUET        CLOUDY    37  36  93 CALM      29.64R
MCGREGOR       CLOUDY    34  32  93 N13G18    29.66R WCI  25
$$
MNZ071>073-080-081-089-090-097-098-230100-
   Southwest Minnesota

CITY           SKY/WX    TMP DP  RH WIND       PRES   REMARKS
MONTEVIDEO     CLOUDY    39  36  87 N15G26    29.74R
GRANITE FALLS  CLOUDY    41  38  89 NW21G26   29.74R
CANBY          CLOUDY    39  36  88 W16G25    29.77R
MARSHALL       CLOUDY    40  37  89 NW20      29.73R
REDWOOD FALLS  CLOUDY    45  38  76 NW18G29   29.67R
OLIVIA         CLOUDY    41  37  87 NW20G29   29.68R
PIPESTONE      CLEAR     46  36  66 NW13      29.72R
WINDOM         CLEAR     43  39  87 NW16G25   29.70R
WORTHINGTON    CLOUDY    47  43  86 N15       29.71R
JACKSON          N/A     46  43  87 NW22      29.68R
TRACY          CLOUDY    43  39  87 NW17      29.72R
SLAYTON        PTCLDY    42  39  89 NW17G24   29.71R
$$
MNZ065>067-074>077-082>085-091>093-230100-
   South Central Minnesota

CITY           SKY/WX    TMP DP  RH WIND       PRES   REMARKS
MANKATO          N/A     51  45  79 NW15      29.63R
NEW ULM        PTCLDY    45  39  81 NW16      29.66R
ST JAMES       CLEAR     46  43  87 W17       29.68R
FAIRMONT       CLEAR     50  45  83 NW25      29.65R
GLENCOE        PTCLDY    50  47  90 W12G17    29.61R
FARIBAULT      PTCLDY    54  48  82 W9        29.59R
OWATONNA       CLEAR     52  46  82 W7        29.58S
WASECA         CLEAR     54  45  71 NW17      29.61R
ALBERT LEA     CLEAR     55  46  71 CALM      29.59S
$$
MNZ078>079-086>088-094>096-230100-
   Southeast Minnesota

CITY           SKY/WX    TMP DP  RH WIND       PRES   REMARKS
ROCHESTER      CLEAR     50  46  86 W10       29.58R
6HR MIN TEMP:  50; 6HR MAX TEMP:  56;

RED WING       CLEAR     50  39  66 CALM      29.56R
STANTON        PTCLDY    54  46  74 W9        29.57R
DODGE CENTER   CLEAR     50  45  81 W7        29.59R
WINONA         CLEAR     54  43  66 CALM      29.56F
AUSTIN         CLEAR     54  45  71 W3        29.59R
PRESTON        CLEAR     51  44  76 W5        29.58F
$$
ABBREVIATIONS USED IN REMARKS
   TC - TEMPERATURES IN CELSIUS
  WCI - WIND CHILL INDEX
   HX - HEAT INDEX
  VSB - VISIBILITY
$$




USA.gov is the U.S. government's official web portal to all federal, state and local government web resources and services.